Powrót do katalogu

FENGYUN 1C DEB

AktywnyPO
NORAD 32360·DEBRIS·🇨🇳 China

Wystrzelony May 10, 1999 z Taiyuan Satellite Launch Center

Loading…

Następne Przeloty (najbliższe 24 godziny)

TLE

Starzejące sięSource: Space-Track

Epoka: Sep 6, 2026, 16:25 UTC

1 32360U 99025CZD 26249.68419743  .00002553  00000-0  14026-2 0  9994
2 32360  98.1275  42.0242 0221997 268.0714  89.5018 14.00775602685653

Śledź FENGYUN 1C DEB w czasie rzeczywistym z AllMySat

Download on the App Store